IRIDIUM 60

Last updated on Wed Nov 29 2017 00:19:02 GMT+0000 (Coordinated Universal Time)

1 25276U 98019E 17332.20818077 .00000182 00000-0 57912-4 0 9997 2 25276 86.3992 218.4033 0001950 84.7064 275.4354 14.34219178 29579
UTC large
Height (km)
Speed (km/s)
/
Latitude / Longitude
Inclination (degrees)
Orbital Period (minutes)
Azimuth
Elevation
Range (km)
Doppler Factor

Next 0 passes for location: London (51.5072 / 0.1276)

Sorry there are no passes over London.